Location: Muenchen
(48.1800°N, 11.5800°E)
Time: 23:59:23
(UTC+02:00)

Cosmos 1455 - Visible Passes

Search period start: 21 August 2014 00:00
Search period end: 31 August 2014 00:00
Orbit: 519 x 545 km, 82.5° (Epoch: 20 August)

Date Brightness Start Highest point End Pass type
(mag) Time Alt. Az. Time Alt. Az. Time Alt. Az.
21 Aug 5.4 03:51:39 10° E 03:52:42 11° E 03:53:46 10° ENE visible
21 Aug 2.3 05:24:10 10° SSW 05:28:08 72° W 05:32:09 10° N visible
22 Aug 5.4 03:42:09 10° E 03:42:46 10° E 03:43:24 10° ENE visible
22 Aug 2.3 05:14:11 10° SSW 05:18:10 76° W 05:22:11 10° N visible
23 Aug 2.2 05:04:13 10° SSW 05:08:12 80° W 05:12:13 10° N visible
24 Aug 2.2 04:54:41 13° S 04:58:14 84° W 05:02:15 10° N visible
25 Aug 2.2 04:45:18 18° S 04:48:15 89° W 04:52:17 10° N visible
26 Aug 2.3 04:35:54 23° S 04:38:17 87° E 04:42:19 10° N visible
27 Aug 2.3 04:26:27 31° S 04:28:19 82° E 04:32:20 10° N visible
28 Aug 2.3 04:16:58 40° S 04:18:20 78° E 04:22:21 10° NNE visible
29 Aug 2.4 04:07:27 51° SSE 04:08:21 74° E 04:12:21 10° NNE visible
29 Aug 4.4 05:43:26 10° W 05:44:56 12° WNW 05:46:27 10° NW visible
30 Aug 2.4 03:57:54 62° SE 03:58:22 69° E 04:02:22 10° NNE visible
30 Aug 4.4 05:33:16 10° W 05:34:55 12° WNW 05:36:38 10° NW visible
